Time,TemperatureF,DewpointF,PressureIn,WindDirection,WindDirectionDegrees,WindSpeedMPH,WindSpeedGustMPH,Humidity,HourlyPrecipIn,Conditions,Clouds,dailyrainin,SoftwareType,DateUTC
2013-12-19 00:00:00,32.3,20.0,30.13,South,180,12.0,26.0,60,0.00,,,-99.99,WeatherLink 5.6,2013-12-19 05:00:00,
2013-12-19 00:30:00,31.9,20.0,30.12,South,180,12.0,25.0,61,0.00,,,-99.99,WeatherLink 5.6,2013-12-19 05:30:00,
2013-12-19 01:00:00,32.5,18.9,30.11,South,180,13.0,25.0,57,0.00,,,-99.99,WeatherLink 5.6,2013-12-19 06:00:00,
2013-12-19 01:30:00,33.0,19.4,30.10,South,180,16.0,29.0,57,0.00,,,-99.99,WeatherLink 5.6,2013-12-19 06:30:00,
2013-12-19 02:00:00,32.7,19.1,30.10,South,180,15.0,30.0,57,0.00,,,-99.99,WeatherLink 5.6,2013-12-19 07:00:00,
2013-12-19 02:30:00,32.7,19.1,30.11,South,180,14.0,25.0,57,0.00,,,-99.99,WeatherLink 5.6,2013-12-19 07:30:00,
2013-12-19 03:00:00,32.7,18.7,30.11,South,180,13.0,23.0,56,0.00,,,-99.99,WeatherLink 5.6,2013-12-19 08:00:00,
2013-12-19 03:30:00,33.8,18.9,30.11,South,180,12.0,22.0,54,0.00,,,-99.99,WeatherLink 5.6,2013-12-19 08:30:00,
2013-12-19 04:00:00,33.3,18.0,30.11,South,180,13.0,23.0,53,0.00,,,-99.99,WeatherLink 5.6,2013-12-19 09:00:00,
2013-12-19 04:30:00,33.5,18.2,30.11,South,180,10.0,21.0,53,0.00,,,-99.99,WeatherLink 5.6,2013-12-19 09:30:00,
2013-12-19 05:00:00,33.2,18.3,30.12,South,180,10.0,22.0,54,0.00,,,-99.99,WeatherLink 5.6,2013-12-19 10:00:00,
2013-12-19 05:30:00,33.8,18.5,30.12,South,180,9.0,20.0,53,0.00,,,-99.99,WeatherLink 5.6,2013-12-19 10:30:00,
2013-12-19 06:00:00,33.7,18.8,30.12,South,180,9.0,20.0,54,0.00,,,-99.99,WeatherLink 5.6,2013-12-19 11:00:00,
2013-12-19 06:30:00,33.7,19.2,30.13,South,180,8.0,19.0,55,0.00,,,-99.99,WeatherLink 5.6,2013-12-19 11:30:00,
2013-12-19 07:00:00,33.4,19.4,30.15,South,180,7.0,21.0,56,0.00,,,-99.99,WeatherLink 5.6,2013-12-19 12:00:00,
2013-12-19 07:30:00,33.5,19.0,30.15,South,180,8.0,18.0,55,0.00,,,-99.99,WeatherLink 5.6,2013-12-19 12:30:00,
2013-12-19 08:00:00,34.6,19.6,30.15,South,180,7.0,17.0,54,0.00,,,-99.99,WeatherLink 5.6,2013-12-19 13:00:00,
2013-12-19 08:30:00,35.7,19.8,30.15,South,180,8.0,20.0,52,0.00,,,-99.99,WeatherLink 5.6,2013-12-19 13:30:00,
2013-12-19 09:00:00,37.1,20.6,30.15,South,180,8.0,20.0,51,0.00,,,-99.99,WeatherLink 5.6,2013-12-19 14:00:00,
2013-12-19 09:30:00,38.4,21.4,30.16,South,180,8.0,19.0,50,0.00,,,-99.99,WeatherLink 5.6,2013-12-19 14:30:00,
2013-12-19 10:00:00,40.3,22.6,30.16,South,180,8.0,17.0,49,0.00,,,-99.99,WeatherLink 5.6,2013-12-19 15:00:00,
2013-12-19 10:30:00,41.5,22.7,30.15,South,180,8.0,18.0,47,0.00,,,-99.99,WeatherLink 5.6,2013-12-19 15:30:00,
2013-12-19 11:00:00,43.2,24.3,30.15,South,180,7.0,19.0,47,0.00,,,-99.99,WeatherLink 5.6,2013-12-19 16:00:00,
2013-12-19 11:30:00,44.8,24.2,30.14,South,180,7.0,18.0,44,0.00,,,-99.99,WeatherLink 5.6,2013-12-19 16:30:00,
2013-12-19 12:00:00,46.5,25.7,30.12,South,180,6.0,16.0,44,0.00,,,-99.99,WeatherLink 5.6,2013-12-19 17:00:00,
2013-12-19 12:30:00,45.6,24.9,30.11,South,180,6.0,16.0,44,0.00,,,-99.99,WeatherLink 5.6,2013-12-19 17:30:00,
2013-12-19 13:00:00,46.6,26.4,30.09,South,180,6.0,13.0,45,0.00,,,-99.99,WeatherLink 5.6,2013-12-19 18:00:00,
2013-12-19 13:30:00,47.9,27.0,30.08,South,180,5.0,13.0,44,0.00,,,-99.99,WeatherLink 5.6,2013-12-19 18:30:00,
2013-12-19 14:00:00,47.8,26.4,30.08,South,180,6.0,15.0,43,0.00,,,-99.99,WeatherLink 5.6,2013-12-19 19:00:00,
2013-12-19 14:30:00,48.3,26.8,30.07,South,180,5.0,12.0,43,0.00,,,-99.99,WeatherLink 5.6,2013-12-19 19:30:00,
2013-12-19 15:00:00,47.7,26.8,30.07,South,180,5.0,14.0,44,0.00,,,-99.99,WeatherLink 5.6,2013-12-19 20:00:00,
2013-12-19 15:30:00,47.7,26.3,30.07,South,180,4.0,11.0,43,0.00,,,-99.99,WeatherLink 5.6,2013-12-19 20:30:00,
2013-12-19 16:00:00,47.5,25.5,30.08,SSE,157,4.0,13.0,42,0.00,,,-99.99,WeatherLink 5.6,2013-12-19 21:00:00,
2013-12-19 16:30:00,46.3,25.0,30.08,SSE,157,3.0,10.0,43,0.00,,,-99.99,WeatherLink 5.6,2013-12-19 21:30:00,
2013-12-19 17:00:00,45.9,25.7,30.07,South,180,4.0,13.0,45,0.00,,,-99.99,WeatherLink 5.6,2013-12-19 22:00:00,
2013-12-19 17:30:00,45.0,25.4,30.07,SSE,157,4.0,12.0,46,0.00,,,-99.99,WeatherLink 5.6,2013-12-19 22:30:00,
2013-12-19 18:00:00,44.5,26.0,30.06,SSE,157,4.0,12.0,48,0.00,,,-99.99,WeatherLink 5.6,2013-12-19 23:00:00,
2013-12-19 18:30:00,45.0,26.0,30.06,South,180,4.0,14.0,47,0.00,,,-99.99,WeatherLink 5.6,2013-12-19 23:30:00,
2013-12-19 19:00:00,44.9,25.9,30.06,South,180,5.0,17.0,47,0.00,,,-99.99,WeatherLink 5.6,2013-12-20 00:00:00,
2013-12-19 19:30:00,44.2,25.7,30.05,SSE,157,6.0,15.0,48,0.00,,,-99.99,WeatherLink 5.6,2013-12-20 00:30:00,
2013-12-19 20:00:00,44.0,25.5,30.04,SSE,157,6.0,16.0,48,0.00,,,-99.99,WeatherLink 5.6,2013-12-20 01:00:00,
2013-12-19 20:30:00,44.1,25.6,30.03,South,180,6.0,17.0,48,0.00,,,-99.99,WeatherLink 5.6,2013-12-20 01:30:00,
2013-12-19 21:00:00,44.0,25.0,30.03,South,180,5.0,17.0,47,0.00,,,-99.99,WeatherLink 5.6,2013-12-20 02:00:00,
2013-12-19 21:30:00,44.1,25.6,30.01,South,180,6.0,17.0,48,0.00,,,-99.99,WeatherLink 5.6,2013-12-20 02:30:00,
2013-12-19 22:00:00,43.8,25.4,30.00,SSE,157,6.0,17.0,48,0.00,,,-99.99,WeatherLink 5.6,2013-12-20 03:00:00,
2013-12-19 22:30:00,44.2,25.7,30.00,SSE,157,7.0,19.0,48,0.00,,,-99.99,WeatherLink 5.6,2013-12-20 03:30:00,
2013-12-19 23:00:00,44.6,25.6,29.99,South,180,11.0,25.0,47,0.00,,,-99.99,WeatherLink 5.6,2013-12-20 04:00:00,
2013-12-19 23:30:00,44.9,25.3,29.98,South,180,8.0,24.0,46,0.00,,,-99.99,WeatherLink 5.6,2013-12-20 04:30:00,